| time (UTC) | temp F | wind direction | speed MPH | gust MPH | rain 1hr in | rain 24hr in | rain mn in | humidity % | barometer mb |
| 20260505153044 | 53 | 153 | 2.0 | 8.0 | 0.00 | 0.00 | 0.00 | 58 | 1012.3 |
| 20260505152543 | 54 | 165 | 3.0 | 6.0 | 0.00 | 0.00 | 0.00 | 58 | 1012.2 |
| 20260505152043 | 54 | 172 | 3.0 | 5.0 | 0.00 | 0.00 | 0.00 | 57 | 1012.2 |
| 20260505151546 | 54 | 175 | 2.0 | 7.0 | 0.00 | 0.00 | 0.00 | 57 | 1012.2 |
| 20260505151042 | 55 | 171 | 1.0 | 7.0 | 0.00 | 0.00 | 0.00 | 56 | 1012.2 |
| 20260505150542 | 55 | 92 | 0.0 | 7.0 | 0.00 | 0.00 | 0.00 | 55 | 1012.2 |
| 20260505140540 | 55 | 202 | 2.0 | 6.0 | 0.00 | 0.00 | 0.00 | 59 | 1012.4 |
| 20260505125035 | 56 | 33 | 2.0 | 4.0 | 0.00 | 0.00 | 0.00 | 55 | 1012.2 |
| 20260505124539 | 57 | 86 | 1.0 | 4.0 | 0.00 | 0.00 | 0.00 | 57 | 1012.2 |
| 20260505124034 | 56 | 32 | 1.0 | 6.0 | 0.00 | 0.00 | 0.00 | 58 | 1012.2 |
| 20260505123535 | 56 | 74 | 2.0 | 5.0 | 0.00 | 0.00 | 0.00 | 56 | 1012.2 |
| 20260505123038 | 56 | 60 | 1.0 | 6.0 | 0.00 | 0.00 | 0.00 | 58 | 1012.3 |
| 20260505122532 | 56 | 69 | 2.0 | 6.0 | 0.00 | 0.00 | 0.00 | 56 | 1012.3 |
| 20260505122031 | 55 | 44 | 2.0 | 6.0 | 0.00 | 0.00 | 0.00 | 58 | 1012.3 |
| 20260505121532 | 55 | 50 | 3.0 | 6.0 | 0.00 | 0.00 | 0.00 | 57 | 1012.4 |
| 20260505121031 | 56 | 63 | 3.0 | 7.0 | 0.00 | 0.00 | 0.00 | 56 | 1012.3 |
| 20260505120531 | 56 | 53 | 3.0 | 7.0 | 0.00 | 0.00 | 0.00 | 56 | 1012.3 |
| 20260505120030 | 56 | 16 | 1.0 | 4.0 | 0.00 | 0.00 | 0.00 | 58 | 1012.3 |
| 20260505115528 | 56 | 68 | 1.0 | 5.0 | 0.00 | 0.00 | 0.00 | 56 | 1012.3 |
| 20260505115028 | 56 | 5 | 2.0 | 6.0 | 0.00 | 0.00 | 0.00 | 56 | 1012.3 |
| 20260505114528 | 55 | 46 | 1.0 | 6.0 | 0.00 | 0.00 | 0.00 | 58 | 1012.3 |
| 20260505114027 | 56 | 31 | 2.0 | 5.0 | 0.00 | 0.00 | 0.00 | 57 | 1012.3 |
| 20260505113527 | 55 | 28 | 2.0 | 4.0 | 0.00 | 0.00 | 0.00 | 58 | 1012.3 |
| 20260505113026 | 55 | 113 | 1.0 | 6.0 | 0.00 | 0.00 | 0.00 | 58 | 1012.4 |
| 20260505112525 | 55 | 34 | 2.0 | 5.0 | 0.00 | 0.00 | 0.00 | 56 | 1012.4 |
| 20260505112024 | 56 | 58 | 2.0 | 6.0 | 0.00 | 0.00 | 0.00 | 57 | 1012.4 |
| 20260505111533 | 56 | 98 | 1.0 | 4.0 | 0.00 | 0.00 | 0.00 | 58 | 1012.4 |
| 20260505111024 | 55 | 105 | 2.0 | 5.0 | 0.00 | 0.00 | 0.00 | 60 | 1012.4 |
| 20260505110522 | 55 | 53 | 2.0 | 5.0 | 0.00 | 0.00 | 0.00 | 58 | 1012.5 |
| 20260505102017 | 55 | 21 | 3.0 | 10.0 | 0.00 | 0.00 | 0.00 | 56 | 1012.6 |
| 20260505101517 | 55 | 65 | 4.0 | 10.0 | 0.00 | 0.00 | 0.00 | 55 | 1012.6 |
| 20260505101016 | 56 | 13 | 2.0 | 6.0 | 0.00 | 0.00 | 0.00 | 56 | 1012.6 |
| 20260505100517 | 56 | 35 | 1.0 | 7.0 | 0.00 | 0.00 | 0.00 | 61 | 1012.6 |
| 20260505100018 | 56 | 45 | 2.0 | 8.0 | 0.00 | 0.00 | 0.00 | 59 | 1012.6 |
| 20260505095514 | 56 | 109 | 2.0 | 6.0 | 0.00 | 0.00 | 0.00 | 59 | 1012.6 |
| 20260505095013 | 56 | 82 | 2.0 | 6.0 | 0.00 | 0.00 | 0.00 | 59 | 1012.6 |
| 20260505094515 | 56 | 42 | 1.0 | 6.0 | 0.00 | 0.00 | 0.00 | 60 | 1012.6 |
| 20260505094011 | 55 | 64 | 2.0 | 10.0 | 0.00 | 0.00 | 0.00 | 62 | 1012.5 |
| 20260505093511 | 55 | 13 | 2.0 | 10.0 | 0.00 | 0.00 | 0.00 | 61 | 1012.5 |
| 20260505093010 | 55 | 61 | 3.0 | 6.0 | 0.00 | 0.00 | 0.00 | 60 | 1012.4 |
| 20260505092509 | 56 | 70 | 2.0 | 5.0 | 0.00 | 0.00 | 0.00 | 61 | 1012.3 |
| 20260505092007 | 56 | 327 | 2.0 | 5.0 | 0.00 | 0.00 | 0.00 | 61 | 1012.3 |
| 20260505091505 | 55 | 40 | 2.0 | 4.0 | 0.00 | 0.00 | 0.00 | 63 | 1012.3 |
| 20260505091004 | 54 | 33 | 1.0 | 8.0 | 0.00 | 0.00 | 0.00 | 65 | 1012.2 |
| 20260505090508 | 55 | 51 | 3.0 | 8.0 | 0.00 | 0.00 | 0.00 | 64 | 1012.3 |
| 20260505090004 | 54 | 59 | 2.0 | 5.0 | 0.00 | 0.00 | 0.00 | 64 | 1012.4 |
| 20260505085503 | 54 | 38 | 2.0 | 5.0 | 0.00 | 0.00 | 0.00 | 64 | 1012.4 |
| 20260505085002 | 54 | 19 | 2.0 | 5.0 | 0.00 | 0.00 | 0.00 | 64 | 1012.4 |
| 20260505084601 | 54 | 31 | 1.0 | 5.0 | 0.00 | 0.00 | 0.00 | 64 | 1012.4 |
| 20260505084059 | 53 | 74 | 2.0 | 5.0 | 0.00 | 0.00 | 0.00 | 63 | 1012.3 |
| 20260505083557 | 53 | 50 | 3.0 | 7.0 | 0.00 | 0.00 | 0.00 | 65 | 1012.2 |
| 20260505083058 | 53 | 59 | 3.0 | 7.0 | 0.00 | 0.00 | 0.00 | 65 | 1012.2 |
| 20260505082556 | 53 | 268 | 2.0 | 6.0 | 0.00 | 0.00 | 0.00 | 64 | 1012.2 |
| 20260505082053 | 53 | 319 | 0.0 | 5.0 | 0.00 | 0.00 | 0.00 | 66 | 1012.2 |
| 20260505081603 | 52 | 160 | 1.0 | 5.0 | 0.00 | 0.00 | 0.00 | 66 | 1012.2 |
| 20260505081051 | 52 | 57 | 1.0 | 5.0 | 0.00 | 0.00 | 0.00 | 68 | 1012.2 |
| 20260505080551 | 52 | 70 | 1.0 | 7.0 | 0.00 | 0.00 | 0.00 | 69 | 1012.1 |
| 20260505080050 | 52 | 86 | 3.0 | 7.0 | 0.00 | 0.00 | 0.00 | 67 | 1012.1 |
| 20260505075552 | 52 | 259 | 2.0 | 7.0 | 0.00 | 0.00 | 0.00 | 68 | 1012.1 |
| 20260505075048 | 52 | 84 | 1.0 | 9.0 | 0.00 | 0.00 | 0.00 | 70 | 1012.2 |
| 20260505074546 | 52 | 138 | 2.0 | 9.0 | 0.00 | 0.00 | 0.00 | 69 | 1012.1 |
| 20260505074046 | 51 | 316 | 1.0 | 6.0 | 0.00 | 0.00 | 0.00 | 72 | 1012.1 |
| 20260505073544 | 51 | 63 | 2.0 | 6.0 | 0.00 | 0.00 | 0.00 | 72 | 1012.0 |
| 20260505073048 | 51 | 304 | 2.0 | 6.0 | 0.00 | 0.00 | 0.00 | 72 | 1012.0 |
| 20260505072542 | 50 | 58 | 3.0 | 6.0 | 0.00 | 0.00 | 0.00 | 73 | 1012.0 |
| 20260505072041 | 50 | 266 | 2.0 | 8.0 | 0.00 | 0.00 | 0.00 | 75 | 1011.9 |
| 20260505071550 | 50 | 200 | 2.0 | 8.0 | 0.00 | 0.00 | 0.00 | 74 | 1011.9 |
| 20260505071038 | 49 | 315 | 2.0 | 8.0 | 0.00 | 0.00 | 0.00 | 75 | 1011.9 |
| 20260505070540 | 49 | 298 | 1.0 | 8.0 | 0.00 | 0.00 | 0.00 | 77 | 1012.0 |
| 20260505070035 | 49 | 16 | 2.0 | 8.0 | 0.00 | 0.00 | 0.00 | 78 | 1012.0 |
| 20260505065534 | 48 | 355 | 2.0 | 8.0 | 0.00 | 0.01 | 0.00 | 79 | 1011.9 |
| 20260505065032 | 48 | 123 | 1.0 | 8.0 | 0.00 | 0.01 | 0.00 | 81 | 1011.9 |
| 20260505064531 | 48 | 313 | 2.0 | 7.0 | 0.00 | 0.01 | 0.00 | 83 | 1011.9 |
| 20260505064029 | 47 | 56 | 1.0 | 7.0 | 0.00 | 0.01 | 0.00 | 85 | 1011.9 |
| 20260505063529 | 47 | 213 | 2.0 | 7.0 | 0.00 | 0.01 | 0.00 | 86 | 1011.8 |
| 20260505063027 | 46 | 79 | 2.0 | 9.0 | 0.00 | 0.01 | 0.00 | 86 | 1011.9 |
| 20260505062525 | 46 | 106 | 2.0 | 9.0 | 0.00 | 0.01 | 0.00 | 90 | 1011.9 |
| 20260505062024 | 46 | 285 | 1.0 | 6.0 | 0.00 | 0.01 | 0.00 | 92 | 1011.9 |
| 20260505061525 | 45 | 85 | 1.0 | 8.0 | 0.00 | 0.01 | 0.00 | 92 | 1011.8 |
| 20260505061022 | 45 | 336 | 2.0 | 10.0 | 0.00 | 0.01 | 0.00 | 94 | 1011.8 |
| 20260505060524 | 45 | 311 | 3.0 | 10.0 | 0.00 | 0.01 | 0.00 | 95 | 1011.9 |
| 20260505060023 | 45 | 50 | 3.0 | 8.0 | 0.00 | 0.01 | 0.00 | 95 | 1011.9 |
| 20260505055519 | 44 | 311 | 2.0 | 5.0 | 0.00 | 0.01 | 0.00 | 96 | 1011.8 |
| 20260505055018 | 44 | 238 | 1.0 | 5.0 | 0.00 | 0.01 | 0.00 | 96 | 1011.8 |
| 20260505054517 | 43 | 298 | 1.0 | 8.0 | 0.00 | 0.01 | 0.00 | 96 | 1011.9 |
| 20260505054016 | 43 | 234 | 2.0 | 8.0 | 0.00 | 0.01 | 0.00 | 96 | 1011.9 |
| 20260505053515 | 43 | 360 | 1.0 | 7.0 | 0.00 | 0.01 | 0.00 | 96 | 1011.9 |
| 20260505053021 | 42 | 293 | 0.0 | 7.0 | 0.00 | 0.01 | 0.00 | 96 | 1011.8 |
| 20260505052515 | 42 | 269 | 1.0 | 7.0 | 0.00 | 0.01 | 0.00 | 96 | 1011.9 |
| 20260505052010 | 42 | 294 | 2.0 | 5.0 | 0.00 | 0.01 | 0.00 | 96 | 1011.8 |
| 20260505051512 | 41 | 275 | 1.0 | 6.0 | 0.00 | 0.01 | 0.00 | 96 | 1011.8 |
| 20260505051011 | 41 | 277 | 2.0 | 6.0 | 0.00 | 0.01 | 0.00 | 96 | 1011.7 |
| 20260505050511 | 41 | 231 | 1.0 | 6.0 | 0.00 | 0.01 | 0.00 | 96 | 1011.7 |
| 20260505041504 | 39 | 304 | 1.0 | 7.0 | 0.00 | 0.01 | 0.00 | 95 | 1011.5 |
| 20260505041003 | 39 | 214 | 2.0 | 7.0 | 0.00 | 0.01 | 0.00 | 95 | 1011.5 |
| 20260505040503 | 39 | 248 | 1.0 | 6.0 | 0.00 | 0.01 | 0.00 | 95 | 1011.5 |
| 20260505040006 | 39 | 288 | 1.0 | 4.0 | 0.00 | 0.01 | 0.00 | 95 | 1011.5 |
| 20260505035502 | 39 | 254 | 1.0 | 4.0 | 0.00 | 0.02 | 0.00 | 95 | 1011.4 |
| 20260505035000 | 39 | 236 | 1.0 | 4.0 | 0.00 | 0.02 | 0.00 | 95 | 1011.5 |
| 20260505034501 | 39 | 204 | 0.0 | 3.0 | 0.00 | 0.02 | 0.00 | 95 | 1011.5 |
| 20260505034100 | 39 | 204 | 0.0 | 3.0 | 0.00 | 0.02 | 0.00 | 95 | 1011.5 |
| 20260505033600 | 39 | 260 | 0.0 | 3.0 | 0.00 | 0.02 | 0.00 | 95 | 1011.6 |
| 20260505033101 | 39 | 242 | 0.0 | 2.0 | 0.00 | 0.02 | 0.00 | 95 | 1011.5 |
| 20260505032559 | 39 | 285 | 0.0 | 3.0 | 0.00 | 0.02 | 0.00 | 95 | 1011.5 |
| 20260505032057 | 39 | 254 | 0.0 | 3.0 | 0.00 | 0.02 | 0.00 | 95 | 1011.6 |
| 20260505031559 | 39 | 229 | 0.0 | 4.0 | 0.00 | 0.02 | 0.00 | 95 | 1011.6 |
| 20260505031057 | 39 | 229 | 1.0 | 4.0 | 0.00 | 0.02 | 0.00 | 95 | 1011.6 |
| 20260505030557 | 39 | 246 | 1.0 | 5.0 | 0.00 | 0.02 | 0.00 | 95 | 1011.6 |
| 20260505030103 | 39 | 247 | 1.0 | 5.0 | 0.00 | 0.02 | 0.00 | 95 | 1011.6 |
| 20260505025556 | 39 | 296 | 1.0 | 4.0 | 0.00 | 0.03 | 0.00 | 95 | 1011.6 |
| 20260505025055 | 38 | 246 | 1.0 | 2.0 | 0.00 | 0.03 | 0.00 | 94 | 1011.7 |
| 20260505024555 | 38 | 325 | 0.0 | 2.0 | 0.00 | 0.03 | 0.00 | 94 | 1011.7 |
| 20260505024053 | 38 | 321 | 0.0 | 2.0 | 0.00 | 0.03 | 0.00 | 94 | 1011.7 |
| 20260505023553 | 39 | 216 | 0.0 | 5.0 | 0.00 | 0.03 | 0.00 | 94 | 1011.7 |
| 20260505023057 | 39 | 272 | 1.0 | 5.0 | 0.00 | 0.03 | 0.00 | 94 | 1011.8 |
| 20260505022553 | 39 | 212 | 0.0 | 2.0 | 0.00 | 0.03 | 0.00 | 94 | 1011.8 |
| 20260505022050 | 39 | 213 | 0.0 | 2.0 | 0.00 | 0.03 | 0.00 | 94 | 1011.8 |
| 20260505021552 | 39 | 246 | 0.0 | 3.0 | 0.00 | 0.03 | 0.00 | 94 | 1011.8 |
| 20260505021049 | 39 | 259 | 0.0 | 3.0 | 0.00 | 0.03 | 0.00 | 94 | 1011.8 |
| 20260505020549 | 39 | 261 | 0.0 | 2.0 | 0.00 | 0.03 | 0.00 | 94 | 1011.8 |
| 20260505020052 | 39 | 261 | 0.0 | 2.0 | 0.00 | 0.03 | 0.00 | 94 | 1011.8 |
| 20260505015548 | 39 | 275 | 0.0 | 2.0 | 0.00 | 0.10 | 0.00 | 94 | 1011.9 |
| 20260505015047 | 39 | 236 | 0.0 | 3.0 | 0.00 | 0.10 | 0.00 | 94 | 1011.8 |
| 20260505014547 | 39 | 292 | 0.0 | 2.0 | 0.00 | 0.10 | 0.00 | 93 | 1011.9 |
| 20260505014048 | 39 | 287 | 0.0 | 2.0 | 0.00 | 0.10 | 0.00 | 93 | 1011.8 |
| 20260505013545 | 39 | 290 | 0.0 | 2.0 | 0.00 | 0.10 | 0.00 | 93 | 1011.9 |
| 20260505013044 | 39 | 290 | 0.0 | 2.0 | 0.00 | 0.10 | 0.00 | 93 | 1011.9 |
| 20260505012544 | 39 | 242 | 0.0 | 2.0 | 0.00 | 0.10 | 0.00 | 93 | 1011.9 |
| 20260505012046 | 40 | 242 | 0.0 | 2.0 | 0.00 | 0.10 | 0.00 | 93 | 1012.0 |
| 20260505011550 | 40 | 240 | 0.0 | 4.0 | 0.00 | 0.10 | 0.00 | 93 | 1012.1 |
| 20260505011046 | 40 | 238 | 0.0 | 4.0 | 0.00 | 0.10 | 0.00 | 93 | 1012.1 |
| 20260505010540 | 40 | 271 | 0.0 | 2.0 | 0.00 | 0.10 | 0.00 | 93 | 1012.1 |
| 20260505010040 | 40 | 238 | 0.0 | 3.0 | 0.00 | 0.10 | 0.00 | 93 | 1012.2 |
| 20260505005539 | 40 | 226 | 0.0 | 6.0 | 0.00 | 0.11 | 0.00 | 93 | 1012.2 |
| 20260505005039 | 40 | 300 | 1.0 | 6.0 | 0.00 | 0.11 | 0.00 | 93 | 1012.2 |
| 20260505004540 | 41 | 228 | 0.0 | 5.0 | 0.00 | 0.11 | 0.00 | 93 | 1012.3 |
| 20260505004037 | 40 | 259 | 2.0 | 6.0 | 0.00 | 0.11 | 0.00 | 93 | 1012.2 |
| 20260505003540 | 40 | 263 | 0.0 | 5.0 | 0.00 | 0.11 | 0.00 | 93 | 1012.3 |
| 20260505003036 | 40 | 269 | 0.0 | 4.0 | 0.00 | 0.11 | 0.00 | 93 | 1012.4 |
| 20260505002536 | 40 | 209 | 0.0 | 1.0 | 0.00 | 0.11 | 0.00 | 92 | 1012.3 |
| 20260505002035 | 40 | 234 | 0.0 | 1.0 | 0.00 | 0.11 | 0.00 | 92 | 1012.4 |
| 20260505001535 | 40 | 234 | 0.0 | 3.0 | 0.00 | 0.11 | 0.00 | 92 | 1012.3 |
| 20260505001034 | 40 | 227 | 1.0 | 3.0 | 0.00 | 0.11 | 0.00 | 92 | 1012.3 |
| 20260505000538 | 40 | 308 | 1.0 | 3.0 | 0.00 | 0.11 | 0.00 | 92 | 1012.2 |
| 20260505000034 | 40 | 292 | 0.0 | 3.0 | 0.00 | 0.11 | 0.00 | 92 | 1012.3 |
| 20260504235533 | 40 | 281 | 0.0 | 2.0 | 0.00 | 0.13 | 0.00 | 92 | 1012.3 |
| 20260504235033 | 40 | 289 | 0.0 | 3.0 | 0.00 | 0.13 | 0.00 | 92 | 1012.3 |
| 20260504234532 | 40 | 289 | 0.0 | 3.0 | 0.00 | 0.13 | 0.00 | 92 | 1012.2 |
| 20260504234032 | 40 | 227 | 1.0 | 3.0 | 0.00 | 0.13 | 0.00 | 92 | 1012.3 |
| 20260504233535 | 40 | 240 | 0.0 | 2.0 | 0.00 | 0.13 | 0.00 | 91 | 1012.2 |
| 20260504233031 | 40 | 240 | 0.0 | 2.0 | 0.00 | 0.13 | 0.00 | 91 | 1012.3 |
| 20260504232530 | 40 | 240 | 0.0 | 2.0 | 0.00 | 0.13 | 0.00 | 91 | 1012.3 |
| 20260504232029 | 41 | 286 | 0.0 | 1.0 | 0.00 | 0.13 | 0.00 | 91 | 1012.3 |
| 20260504231528 | 41 | 286 | 0.0 | 3.0 | 0.00 | 0.13 | 0.00 | 91 | 1012.3 |
| 20260504231031 | 41 | 286 | 0.0 | 3.0 | 0.00 | 0.13 | 0.00 | 90 | 1012.3 |
| 20260504230528 | 41 | 243 | 0.0 | 2.0 | 0.00 | 0.13 | 0.00 | 90 | 1012.3 |
| 20260504230029 | 41 | 231 | 0.0 | 3.0 | 0.00 | 0.13 | 0.00 | 90 | 1012.3 |
| 20260504225527 | 41 | 286 | 0.0 | 3.0 | 0.00 | 0.15 | 0.00 | 90 | 1012.3 |
| 20260504225026 | 41 | 294 | 0.0 | 3.0 | 0.00 | 0.15 | 0.00 | 90 | 1012.3 |
| 20260504224527 | 41 | 207 | 0.0 | 2.0 | 0.00 | 0.15 | 0.00 | 89 | 1012.3 |
| 20260504224025 | 41 | 280 | 0.0 | 1.0 | 0.00 | 0.15 | 0.00 | 89 | 1012.3 |
| 20260504223524 | 41 | 280 | 0.0 | 1.0 | 0.00 | 0.15 | 0.00 | 89 | 1012.2 |
| 20260504223024 | 42 | 280 | 0.0 | 1.0 | 0.00 | 0.15 | 0.00 | 89 | 1012.2 |
| 20260504222524 | 42 | 280 | 0.0 | 3.0 | 0.00 | 0.15 | 0.00 | 89 | 1012.2 |
| 20260504222023 | 42 | 280 | 0.0 | 3.0 | 0.00 | 0.15 | 0.00 | 89 | 1012.2 |
| 20260504221524 | 42 | 246 | 0.0 | 3.0 | 0.00 | 0.15 | 0.00 | 89 | 1012.2 |
| 20260504221021 | 42 | 246 | 1.0 | 3.0 | 0.00 | 0.15 | 0.00 | 88 | 1012.3 |
| 20260504220520 | 42 | 274 | 0.0 | 4.0 | 0.00 | 0.15 | 0.00 | 88 | 1012.3 |
| 20260504220023 | 42 | 274 | 0.0 | 4.0 | 0.00 | 0.15 | 0.00 | 88 | 1012.4 |
| 20260504215519 | 43 | 297 | 0.0 | 3.0 | 0.00 | 0.21 | 0.15 | 88 | 1012.4 |
| 20260504215019 | 43 | 282 | 0.0 | 3.0 | 0.00 | 0.21 | 0.15 | 88 | 1012.4 |
| 20260504214518 | 43 | 267 | 0.0 | 3.0 | 0.00 | 0.21 | 0.15 | 88 | 1012.5 |
| 20260504214019 | 43 | 277 | 0.0 | 3.0 | 0.00 | 0.21 | 0.15 | 88 | 1012.4 |
| 20260504213517 | 43 | 278 | 0.0 | 3.0 | 0.00 | 0.21 | 0.15 | 88 | 1012.4 |
| 20260504213017 | 43 | 280 | 1.0 | 4.0 | 0.00 | 0.21 | 0.15 | 88 | 1012.4 |
| 20260504212617 | 43 | 275 | 1.0 | 4.0 | 0.00 | 0.21 | 0.15 | 88 | 1012.4 |
| 20260504212015 | 43 | 252 | 0.0 | 3.0 | 0.00 | 0.21 | 0.15 | 87 | 1012.3 |
| 20260504211516 | 43 | 300 | 0.0 | 3.0 | 0.00 | 0.21 | 0.15 | 87 | 1012.4 |
| 20260504211014 | 43 | 253 | 0.0 | 2.0 | 0.00 | 0.21 | 0.15 | 87 | 1012.3 |
| 20260504210513 | 43 | 253 | 0.0 | 3.0 | 0.00 | 0.21 | 0.15 | 86 | 1012.2 |
| 20260504210013 | 44 | 253 | 0.0 | 3.0 | 0.00 | 0.21 | 0.15 | 86 | 1012.4 |
| 20260504205514 | 44 | 284 | 0.0 | 1.0 | 0.00 | 0.25 | 0.15 | 86 | 1012.4 |
| 20260504205011 | 44 | 284 | 0.0 | 2.0 | 0.00 | 0.25 | 0.15 | 85 | 1012.4 |
| 20260504204511 | 44 | 284 | 0.0 | 2.0 | 0.00 | 0.25 | 0.15 | 85 | 1012.4 |
| 20260504204010 | 44 | 284 | 0.0 | 2.0 | 0.00 | 0.25 | 0.15 | 85 | 1012.4 |
| 20260504203510 | 45 | 284 | 0.0 | 6.0 | 0.00 | 0.25 | 0.15 | 84 | 1012.3 |
| 20260504203012 | 45 | 290 | 0.0 | 2.0 | 0.00 | 0.25 | 0.15 | 84 | 1012.3 |
| 20260504202508 | 45 | 290 | 0.0 | 0.0 | 0.00 | 0.25 | 0.15 | 83 | 1012.3 |
| 20260504202006 | 45 | 290 | 0.0 | 0.0 | 0.00 | 0.25 | 0.15 | 82 | 1012.4 |
| 20260504201506 | 46 | 290 | 0.0 | 0.0 | 0.00 | 0.25 | 0.15 | 82 | 1012.3 |
| 20260504201005 | 46 | 241 | 0.0 | 0.0 | 0.00 | 0.25 | 0.15 | 81 | 1012.3 |
| 20260504200505 | 46 | 241 | 0.0 | 0.0 | 0.00 | 0.25 | 0.15 | 81 | 1012.3 |
| 20260504200004 | 46 | 241 | 0.0 | 0.0 | 0.00 | 0.25 | 0.15 | 81 | 1012.3 |
| 20260504195504 | 47 | 232 | 0.0 | 1.0 | 0.00 | 0.26 | 0.15 | 80 | 1012.3 |
| 20260504195003 | 47 | 221 | 0.0 | 1.0 | 0.00 | 0.26 | 0.15 | 80 | 1012.2 |
| 20260504194503 | 47 | 221 | 0.0 | 2.0 | 0.00 | 0.26 | 0.15 | 79 | 1012.3 |
| 20260504194009 | 47 | 219 | 0.0 | 2.0 | 0.00 | 0.26 | 0.15 | 79 | 1012.3 |
| 20260504193504 | 47 | 257 | 0.0 | 3.0 | 0.00 | 0.26 | 0.15 | 78 | 1012.2 |
| 20260504193004 | 48 | 225 | 0.0 | 3.0 | 0.00 | 0.26 | 0.15 | 78 | 1012.3 |
| 20260504192502 | 48 | 248 | 0.0 | 2.0 | 0.00 | 0.26 | 0.15 | 78 | 1012.3 |
| 20260504192003 | 48 | 297 | 0.0 | 3.0 | 0.00 | 0.26 | 0.15 | 78 | 1012.3 |
| 20260504191506 | 49 | 297 | 0.0 | 3.0 | 0.00 | 0.26 | 0.15 | 77 | 1012.2 |
| 20260504191001 | 49 | 256 | 1.0 | 4.0 | 0.00 | 0.26 | 0.15 | 77 | 1012.2 |
| 20260504190501 | 49 | 284 | 1.0 | 8.0 | 0.00 | 0.26 | 0.15 | 76 | 1012.1 |
| 20260504190111 | 49 | 267 | 0.0 | 8.0 | 0.00 | 0.26 | 0.15 | 76 | 1012.1 |
| 20260504185602 | 49 | 292 | 0.0 | 7.0 | 0.00 | 0.26 | 0.15 | 76 | 1012.1 |
| 20260504185100 | 50 | 262 | 3.0 | 9.0 | 0.00 | 0.26 | 0.15 | 76 | 1012.0 |
| 20260504184615 | 50 | 289 | 2.0 | 8.0 | 0.00 | 0.26 | 0.15 | 75 | 1011.9 |
| 20260504184059 | 50 | 264 | 3.0 | 9.0 | 0.00 | 0.26 | 0.15 | 74 | 1011.9 |
| 20260504183558 | 51 | 184 | 3.0 | 9.0 | 0.00 | 0.26 | 0.15 | 74 | 1011.8 |
| 20260504183104 | 51 | 314 | 3.0 | 7.0 | 0.00 | 0.26 | 0.15 | 73 | 1011.8 |
| 20260504182557 | 51 | 253 | 1.0 | 4.0 | 0.00 | 0.26 | 0.15 | 72 | 1011.8 |
| 20260504182056 | 52 | 287 | 1.0 | 10.0 | 0.00 | 0.26 | 0.15 | 72 | 1011.8 |
| 20260504181557 | 52 | 255 | 5.0 | 10.0 | 0.00 | 0.26 | 0.15 | 71 | 1011.8 |
| 20260504181057 | 52 | 325 | 2.0 | 9.0 | 0.00 | 0.26 | 0.15 | 71 | 1011.7 |
| 20260504180556 | 52 | 302 | 3.0 | 10.0 | 0.00 | 0.26 | 0.15 | 71 | 1011.6 |
| 20260504180056 | 53 | 273 | 3.0 | 13.0 | 0.00 | 0.26 | 0.15 | 70 | 1011.7 |
| 20260504175556 | 53 | 245 | 1.0 | 8.0 | 0.00 | 0.26 | 0.15 | 70 | 1011.6 |
| 20260504175056 | 53 | 275 | 1.0 | 8.0 | 0.00 | 0.26 | 0.15 | 69 | 1011.5 |
| 20260504174559 | 53 | 203 | 0.0 | 12.0 | 0.00 | 0.26 | 0.15 | 68 | 1011.5 |
| 20260504174054 | 54 | 198 | 2.0 | 11.0 | 0.00 | 0.26 | 0.15 | 68 | 1011.5 |
| 20260504173553 | 54 | 350 | 4.0 | 11.0 | 0.00 | 0.26 | 0.15 | 67 | 1011.5 |
| 20260504173057 | 55 | 297 | 2.0 | 11.0 | 0.00 | 0.26 | 0.15 | 66 | 1011.4 |
| 20260504172552 | 56 | 292 | 3.0 | 11.0 | 0.00 | 0.26 | 0.15 | 65 | 1011.3 |
| 20260504172051 | 57 | 302 | 1.0 | 9.0 | 0.00 | 0.26 | 0.15 | 64 | 1011.3 |
| 20260504171550 | 57 | 296 | 3.0 | 9.0 | 0.00 | 0.26 | 0.15 | 63 | 1011.2 |
| 20260504171050 | 58 | 219 | 2.0 | 8.0 | 0.00 | 0.26 | 0.15 | 62 | 1011.2 |
| 20260504170550 | 58 | 310 | 1.0 | 11.0 | 0.00 | 0.26 | 0.15 | 62 | 1011.2 |